User: anonymous   Login
Location: Chircca
(13.7944°S, 72.0608°W)
Time: 22:34:50
(UTC+00:00)
Language:

Cosmos 1544 Rocket - Orbit

View from above orbital plane
View from above orbital plane
View from above satellite
View from above satellite

Ground track
Ground track

The orbit data is extracted from the following two-line orbital elements,

1 14820U 84027B   20270.13260923  .00000077  00000-0  63144-5 0  9990
2 14820  82.5412 307.1728 0020248  72.7330 287.6098 14.83669480973430
Epoch (UTC): 26 September 2020 03:10:57
Eccentricity: 0.0020248
inclination: 82.5412°
perigee height: 603 km
apogee height: 632 km
right ascension of ascending node: 307.1728°
argument of perigee: 72.7330°
revolutions per day: 14.83669480
mean anomaly at epoch: 287.6098°
orbit number at epoch: 97343

The dashed part of the orbit path shows where the satellite is in the earth's shadow,  

DLR